STARLINK-2272

Last updated on Sat Apr 24 2021 00:02:02 GMT+0000 (Coordinated Universal Time)

1 48011U 21024AL 21113.25001157 .00079251 00000-0 56431-3 0 9998 2 48011 53.0484 55.6713 0000947 76.5845 88.9688 15.73173727 1823

Satellite not in orbit